logo dgac
Miércoles 17 de Enero del 2018
Buscar por aerodromo o helipuerto
Ingrese nombre de aeródromo, localidad o designador OACI:

Aeródromo: Rodelillo (PUB) (SCRD)

Ubicación: Viña del Mar, V Región, Chile (33º 04' 06'' S, 71º 33' 27'' W) Ver ubicación en el mapa

Pistas

Orientación Dimensión Pendiente Superficie Resistencia APCH THR RWY PAPI
01/19 850 x 20 1,00 ASPH 6.000 Kg No No No No
Horas de operación HJ
Elevación 335 m / 1100 ft
Otra Información Adm : Mauricio Zulueta
Uso : PUB
TEL Club Aereo Valparaiso-Viña del Mar (32) 22611677
TEL DGAC ARO (32) 22613719
Ubicado a 6 km SE de Viña del Mar

Otra información ver AIP-Chile Volumen I AD 3.9-20.6-V
andera de Chile
Mapa de Rodelillo (PUB) (SCRD)

Último METAR

METAR SCRD 171800Z 18013KT CAVOK 28/08 Q1015

Último TAF

TAF SCRD 171622Z 1718/1806 33008KT CAVOK TX25/1720Z TN14/1806Z BECMG 1803/1805 VRB03KT

Últimas fotos cámaras

Imagen aerodromo Rodelillo (PUB) (SCRD) Sur tomada el 17-01-2018 03:01:49 Imagen aerodromo Rodelillo (PUB) (SCRD) Norte tomada el 17-01-2018 03:02:55

Último NOTAM

C0012/18 NOTAMR C4157/17 Q)SCEZ/QFAXX/IV/NBO/A/000/999/3304S07133W005 A)SCRD B)1801021509 C)PERM E)INFO TEL DGAC:AD 224363586, CEL TWR/ARO 982991600, CEL JEFATURA 991389945

LLegadas a Rodelillo (PUB) (SCRD)

En vuelo

Vuelo Procedencia Hora Despegue Local Hora Arribo Local

Salidas de Rodelillo (PUB) (SCRD)

En vuelo

Vuelo Hacia Hora Despegue Local Hora Arribo Local